| time (UTC) | temp C | wind direction | speed KPH | gust KPH | rain 1hr cm | rain 24hr cm | rain mn cm | humidity % | barometer mb |
| 20260504160142 | 6 | 263 | 3.2 | 14.5 | 0.00 | 0.00 | 0.00 | 57 | 1017.1 |
| 20260504151039 | 4 | 56 | 4.8 | 12.9 | 0.00 | 0.00 | 0.00 | 63 | 1016.9 |
| 20260504150532 | 4 | 268 | 6.4 | 14.5 | 0.00 | 0.00 | 0.00 | 65 | 1017.0 |
| 20260504150142 | 3 | 291 | 3.2 | 16.1 | 0.00 | 0.00 | 0.00 | 66 | 1017.1 |
| 20260504141047 | 2 | 260 | 6.4 | 16.1 | 0.00 | 0.00 | 0.00 | 68 | 1017.0 |
| 20260504140547 | 2 | 313 | 6.4 | 19.3 | 0.00 | 0.00 | 0.00 | 69 | 1016.8 |
| 20260504140130 | 2 | 309 | 9.7 | 20.9 | 0.00 | 0.00 | 0.00 | 69 | 1016.6 |
| 20260504130521 | 2 | 295 | 9.7 | 24.1 | 0.00 | 0.00 | 0.00 | 70 | 1016.3 |
| 20260504120132 | 1 | 195 | 12.9 | 32.2 | 0.00 | 0.00 | 0.00 | 73 | 1016.0 |
| 20260504110526 | 2 | 153 | 14.5 | 29.0 | 0.00 | 0.00 | 0.00 | 71 | 1016.3 |
| 20260504110115 | 2 | 226 | 17.7 | 29.0 | 0.00 | 0.00 | 0.00 | 71 | 1016.3 |
| 20260504100545 | 2 | 309 | 17.7 | 40.2 | 0.00 | 0.00 | 0.00 | 67 | 1015.3 |
| 20260504100117 | 2 | 316 | 16.1 | 40.2 | 0.00 | 0.00 | 0.00 | 66 | 1015.1 |
| 20260504090137 | 3 | 313 | 20.9 | 45.1 | 0.00 | 0.00 | 0.00 | 59 | 1014.4 |
| 20260504081618 | 6 | 302 | 22.5 | 43.5 | 0.00 | 0.00 | 0.00 | 57 | 1014.1 |
| 20260504081044 | 6 | 283 | 12.9 | 37.0 | 0.00 | 0.00 | 0.00 | 55 | 1014.1 |
| 20260504080527 | 6 | 284 | 16.1 | 37.0 | 0.00 | 0.00 | 0.00 | 53 | 1014.0 |
| 20260504080125 | 7 | 297 | 16.1 | 33.8 | 0.00 | 0.00 | 0.00 | 51 | 1014.0 |
| 20260504070108 | 10 | 145 | 0.0 | 9.7 | 0.00 | 0.00 | 0.00 | 39 | 1012.8 |
| 20260504050522 | 11 | 246 | 3.2 | 8.0 | 0.00 | 0.00 | 0.00 | 31 | 1013.3 |
| 20260504050133 | 11 | 210 | 0.0 | 11.3 | 0.00 | 0.00 | 0.00 | 30 | 1013.3 |
| 20260504045526 | 11 | 244 | 3.2 | 11.3 | 0.00 | 0.00 | 0.00 | 29 | 1013.4 |
| 20260504045023 | 11 | 282 | 0.0 | 8.0 | 0.00 | 0.00 | 0.00 | 31 | 1013.3 |
| 20260504044623 | 11 | 274 | 1.6 | 8.0 | 0.00 | 0.00 | 0.00 | 29 | 1013.4 |
| 20260504044025 | 11 | 255 | 0.0 | 6.4 | 0.00 | 0.00 | 0.00 | 30 | 1013.4 |
| 20260504043536 | 11 | 311 | 1.6 | 14.5 | 0.00 | 0.00 | 0.00 | 29 | 1013.3 |
| 20260504043132 | 10 | 290 | 3.2 | 14.5 | 0.00 | 0.00 | 0.00 | 32 | 1013.3 |
| 20260504042519 | 10 | 253 | 1.6 | 6.4 | 0.00 | 0.00 | 0.00 | 34 | 1013.3 |
| 20260504042033 | 10 | 315 | 1.6 | 6.4 | 0.00 | 0.00 | 0.00 | 34 | 1013.3 |
| 20260504041608 | 10 | 249 | 0.0 | 4.8 | 0.00 | 0.00 | 0.00 | 36 | 1013.3 |
| 20260504041031 | 9 | 138 | 0.0 | 4.8 | 0.00 | 0.00 | 0.00 | 35 | 1013.3 |
| 20260504040513 | 10 | 150 | 0.0 | 4.8 | 0.00 | 0.00 | 0.00 | 35 | 1013.3 |
| 20260504040138 | 10 | 150 | 0.0 | 3.2 | 0.00 | 0.00 | 0.00 | 34 | 1013.4 |
| 20260504035527 | 10 | 131 | 0.0 | 3.2 | 0.00 | 0.00 | 0.00 | 32 | 1013.3 |
| 20260504035036 | 10 | 122 | 0.0 | 3.2 | 0.00 | 0.00 | 0.00 | 32 | 1013.3 |
| 20260504034615 | 10 | 118 | 0.0 | 3.2 | 0.00 | 0.00 | 0.00 | 31 | 1013.3 |
| 20260504034026 | 10 | 136 | 0.0 | 3.2 | 0.00 | 0.00 | 0.00 | 34 | 1013.3 |
| 20260504033527 | 10 | 134 | 1.6 | 4.8 | 0.00 | 0.00 | 0.00 | 32 | 1013.3 |
| 20260504033133 | 10 | 111 | 0.0 | 4.8 | 0.00 | 0.00 | 0.00 | 33 | 1013.3 |
| 20260504032514 | 11 | 144 | 0.0 | 4.8 | 0.00 | 0.00 | 0.00 | 33 | 1013.1 |
| 20260504032047 | 11 | 134 | 0.0 | 4.8 | 0.00 | 0.00 | 0.00 | 33 | 1013.1 |
| 20260504031633 | 11 | 258 | 0.0 | 4.8 | 0.00 | 0.00 | 0.00 | 31 | 1013.1 |
| 20260504031023 | 11 | 120 | 0.0 | 6.4 | 0.00 | 0.00 | 0.00 | 31 | 1013.2 |
| 20260504030523 | 11 | 133 | 1.6 | 6.4 | 0.00 | 0.00 | 0.00 | 32 | 1013.1 |
| 20260504030115 | 11 | 289 | 1.6 | 8.0 | 0.00 | 0.00 | 0.00 | 31 | 1013.0 |
| 20260504025523 | 12 | 147 | 1.6 | 8.0 | 0.00 | 0.00 | 0.00 | 33 | 1013.1 |
| 20260504025032 | 12 | 300 | 1.6 | 9.7 | 0.00 | 0.00 | 0.00 | 32 | 1013.0 |
| 20260504024626 | 12 | 105 | 0.0 | 9.7 | 0.00 | 0.00 | 0.00 | 31 | 1013.0 |
| 20260504024024 | 12 | 153 | 1.6 | 6.4 | 0.00 | 0.00 | 0.00 | 32 | 1012.9 |
| 20260504023544 | 12 | 294 | 0.0 | 9.7 | 0.00 | 0.00 | 0.00 | 31 | 1012.9 |
| 20260504023113 | 12 | 166 | 1.6 | 9.7 | 0.00 | 0.00 | 0.00 | 30 | 1012.7 |
| 20260504022520 | 12 | 89 | 0.0 | 6.4 | 0.00 | 0.00 | 0.00 | 31 | 1012.8 |
| 20260504022042 | 13 | 150 | 1.6 | 6.4 | 0.00 | 0.00 | 0.00 | 31 | 1012.9 |
| 20260504021620 | 13 | 240 | 1.6 | 6.4 | 0.00 | 0.00 | 0.00 | 31 | 1012.8 |
| 20260504021037 | 13 | 358 | 0.0 | 9.7 | 0.00 | 0.00 | 0.00 | 31 | 1012.9 |
| 20260504020521 | 13 | 126 | 1.6 | 9.7 | 0.00 | 0.00 | 0.00 | 32 | 1012.9 |
| 20260504020037 | 13 | 272 | 1.6 | 8.0 | 0.00 | 0.00 | 0.00 | 30 | 1012.9 |
| 20260504015516 | 14 | 250 | 1.6 | 6.4 | 0.00 | 0.00 | 0.00 | 30 | 1012.7 |
| 20260504015027 | 14 | 281 | 1.6 | 6.4 | 0.00 | 0.00 | 0.00 | 29 | 1012.7 |
| 20260504014616 | 15 | 144 | 1.6 | 16.1 | 0.00 | 0.00 | 0.00 | 29 | 1012.9 |
| 20260504014033 | 15 | 67 | 3.2 | 16.1 | 0.00 | 0.00 | 0.00 | 30 | 1012.9 |
| 20260504013525 | 15 | 144 | 4.8 | 14.5 | 0.00 | 0.00 | 0.00 | 29 | 1013.0 |
| 20260504013110 | 15 | 288 | 3.2 | 12.9 | 0.00 | 0.00 | 0.00 | 30 | 1013.1 |
| 20260504012537 | 15 | 246 | 1.6 | 11.3 | 0.00 | 0.00 | 0.00 | 30 | 1013.1 |
| 20260504012023 | 15 | 109 | 3.2 | 11.3 | 0.00 | 0.00 | 0.00 | 29 | 1013.2 |
| 20260504011542 | 16 | 63 | 3.2 | 14.5 | 0.00 | 0.00 | 0.00 | 30 | 1013.3 |
| 20260504011021 | 16 | 141 | 6.4 | 14.5 | 0.00 | 0.00 | 0.00 | 29 | 1013.3 |
| 20260504010525 | 16 | 179 | 3.2 | 12.9 | 0.00 | 0.00 | 0.00 | 30 | 1013.3 |
| 20260504010156 | 16 | 238 | 3.2 | 11.3 | 0.00 | 0.00 | 0.00 | 32 | 1013.2 |
| 20260504005530 | 16 | 308 | 0.0 | 11.3 | 0.00 | 0.00 | 0.00 | 31 | 1013.5 |
| 20260504005030 | 16 | 264 | 3.2 | 11.3 | 0.00 | 0.00 | 0.00 | 31 | 1013.4 |
| 20260504004607 | 16 | 150 | 4.8 | 17.7 | 0.00 | 0.00 | 0.00 | 30 | 1013.5 |
| 20260504004024 | 16 | 205 | 4.8 | 17.7 | 0.00 | 0.00 | 0.00 | 31 | 1013.5 |
| 20260504003531 | 16 | 301 | 3.2 | 12.9 | 0.00 | 0.00 | 0.00 | 31 | 1013.5 |
| 20260504003100 | 16 | 160 | 3.2 | 14.5 | 0.00 | 0.00 | 0.00 | 30 | 1013.6 |
| 20260504002519 | 16 | 111 | 1.6 | 14.5 | 0.00 | 0.00 | 0.00 | 29 | 1013.5 |
| 20260504002044 | 16 | 111 | 1.6 | 11.3 | 0.00 | 0.00 | 0.00 | 29 | 1013.6 |
| 20260504001629 | 17 | 326 | 3.2 | 17.7 | 0.00 | 0.00 | 0.00 | 29 | 1013.7 |
| 20260504001040 | 16 | 101 | 8.0 | 17.7 | 0.00 | 0.00 | 0.00 | 30 | 1013.6 |
| 20260504000525 | 16 | 300 | 3.2 | 25.7 | 0.00 | 0.00 | 0.00 | 29 | 1013.7 |
| 20260504000153 | 17 | 297 | 6.4 | 25.7 | 0.00 | 0.00 | 0.00 | 29 | 1013.6 |
| 20260503235543 | 17 | 68 | 3.2 | 11.3 | 0.00 | 0.00 | 0.00 | 28 | 1013.6 |
| 20260503235040 | 17 | 269 | 4.8 | 16.1 | 0.00 | 0.00 | 0.00 | 28 | 1013.6 |
| 20260503234546 | 17 | 134 | 6.4 | 16.1 | 0.00 | 0.00 | 0.00 | 30 | 1013.6 |
| 20260503234024 | 17 | 276 | 1.6 | 12.9 | 0.00 | 0.00 | 0.00 | 30 | 1013.7 |
| 20260503233523 | 17 | 297 | 3.2 | 20.9 | 0.00 | 0.00 | 0.00 | 28 | 1013.7 |
| 20260503233124 | 17 | 276 | 8.0 | 20.9 | 0.00 | 0.00 | 0.00 | 27 | 1013.9 |
| 20260503232524 | 17 | 269 | 3.2 | 20.9 | 0.00 | 0.00 | 0.00 | 27 | 1013.8 |
| 20260503232031 | 17 | 252 | 8.0 | 20.9 | 0.00 | 0.00 | 0.00 | 25 | 1013.7 |
| 20260503231604 | 17 | 240 | 4.8 | 16.1 | 0.00 | 0.00 | 0.00 | 25 | 1014.0 |
| 20260503231048 | 17 | 300 | 6.4 | 14.5 | 0.00 | 0.00 | 0.00 | 25 | 1014.0 |
| 20260503230527 | 17 | 275 | 3.2 | 14.5 | 0.00 | 0.00 | 0.00 | 24 | 1014.3 |
| 20260503230142 | 17 | 346 | 4.8 | 19.3 | 0.00 | 0.00 | 0.00 | 23 | 1014.3 |
| 20260503225532 | 17 | 264 | 4.8 | 19.3 | 0.00 | 0.00 | 0.00 | 22 | 1014.1 |
| 20260503225022 | 17 | 301 | 3.2 | 19.3 | 0.00 | 0.00 | 0.00 | 24 | 1014.1 |
| 20260503224629 | 17 | 155 | 6.4 | 19.3 | 0.00 | 0.00 | 0.00 | 25 | 1014.2 |
| 20260503224019 | 17 | 296 | 3.2 | 14.5 | 0.00 | 0.00 | 0.00 | 24 | 1014.3 |
| 20260503223526 | 17 | 260 | 3.2 | 16.1 | 0.00 | 0.00 | 0.00 | 26 | 1014.4 |
| 20260503223126 | 17 | 276 | 6.4 | 16.1 | 0.00 | 0.00 | 0.00 | 26 | 1014.4 |
| 20260503222535 | 17 | 216 | 3.2 | 22.5 | 0.00 | 0.00 | 0.00 | 25 | 1014.3 |
| 20260503222022 | 17 | 160 | 8.0 | 22.5 | 0.00 | 0.00 | 0.00 | 26 | 1014.5 |
| 20260503221626 | 17 | 245 | 4.8 | 17.7 | 0.00 | 0.00 | 0.00 | 26 | 1014.7 |
| 20260503221046 | 17 | 267 | 3.2 | 20.9 | 0.00 | 0.00 | 0.00 | 27 | 1014.8 |
| 20260503220522 | 17 | 251 | 8.0 | 20.9 | 0.00 | 0.00 | 0.00 | 26 | 1014.7 |
| 20260503220143 | 17 | 256 | 6.4 | 16.1 | 0.00 | 0.00 | 0.00 | 28 | 1014.7 |
| 20260503215525 | 17 | 147 | 6.4 | 16.1 | 0.00 | 0.00 | 0.00 | 29 | 1014.9 |
| 20260503215026 | 17 | 279 | 6.4 | 12.9 | 0.00 | 0.00 | 0.00 | 29 | 1015.0 |
| 20260503214548 | 17 | 74 | 4.8 | 9.7 | 0.00 | 0.00 | 0.00 | 33 | 1014.9 |
| 20260503214035 | 17 | 288 | 1.6 | 16.1 | 0.00 | 0.00 | 0.00 | 34 | 1015.1 |
| 20260503213522 | 17 | 255 | 3.2 | 16.1 | 0.00 | 0.00 | 0.00 | 33 | 1015.3 |
| 20260503213037 | 17 | 287 | 3.2 | 12.9 | 0.00 | 0.00 | 0.00 | 30 | 1015.3 |
| 20260503212527 | 17 | 254 | 4.8 | 16.1 | 0.00 | 0.00 | 0.00 | 34 | 1015.4 |
| 20260503212027 | 17 | 250 | 4.8 | 14.5 | 0.00 | 0.00 | 0.00 | 35 | 1015.5 |
| 20260503211629 | 17 | 24 | 4.8 | 12.9 | 0.00 | 0.00 | 0.00 | 35 | 1015.5 |
| 20260503211029 | 17 | 228 | 4.8 | 12.9 | 0.00 | 0.00 | 0.00 | 37 | 1015.5 |
| 20260503210527 | 17 | 220 | 3.2 | 9.7 | 0.00 | 0.00 | 0.00 | 36 | 1015.8 |
| 20260503210133 | 17 | 285 | 3.2 | 11.3 | 0.00 | 0.00 | 0.00 | 37 | 1015.7 |
| 20260503205522 | 17 | 338 | 4.8 | 11.3 | 0.00 | 0.00 | 0.00 | 34 | 1015.8 |
| 20260503205023 | 17 | 253 | 3.2 | 11.3 | 0.00 | 0.00 | 0.00 | 35 | 1016.0 |
| 20260503204550 | 17 | 293 | 3.2 | 11.3 | 0.00 | 0.00 | 0.00 | 37 | 1015.9 |
| 20260503204043 | 17 | 295 | 1.6 | 11.3 | 0.00 | 0.00 | 0.00 | 39 | 1016.1 |
| 20260503203521 | 17 | 148 | 4.8 | 12.9 | 0.00 | 0.00 | 0.00 | 38 | 1016.1 |
| 20260503203116 | 17 | 278 | 4.8 | 20.9 | 0.00 | 0.00 | 0.00 | 38 | 1016.1 |
| 20260503202520 | 17 | 127 | 4.8 | 16.1 | 0.00 | 0.00 | 0.00 | 35 | 1016.3 |
| 20260503202040 | 17 | 63 | 1.6 | 16.1 | 0.00 | 0.00 | 0.00 | 36 | 1016.1 |
| 20260503201554 | 17 | 214 | 3.2 | 19.3 | 0.00 | 0.00 | 0.00 | 38 | 1016.3 |
| 20260503201026 | 16 | 160 | 3.2 | 19.3 | 0.00 | 0.00 | 0.00 | 39 | 1016.3 |
| 20260503200549 | 16 | 255 | 1.6 | 17.7 | 0.00 | 0.00 | 0.00 | 39 | 1016.5 |
| 20260503200105 | 16 | 306 | 3.2 | 17.7 | 0.00 | 0.00 | 0.00 | 40 | 1016.3 |
| 20260503195541 | 16 | 131 | 6.4 | 19.3 | 0.00 | 0.00 | 0.00 | 40 | 1016.5 |
| 20260503195035 | 16 | 91 | 1.6 | 22.5 | 0.00 | 0.00 | 0.00 | 39 | 1016.5 |
| 20260503194627 | 16 | 168 | 6.4 | 22.5 | 0.00 | 0.00 | 0.00 | 38 | 1016.7 |
| 20260503194035 | 16 | 256 | 9.7 | 22.5 | 0.00 | 0.00 | 0.00 | 35 | 1016.8 |
| 20260503193542 | 16 | 300 | 1.6 | 16.1 | 0.00 | 0.00 | 0.00 | 37 | 1016.7 |
| 20260503193050 | 16 | 60 | 3.2 | 14.5 | 0.00 | 0.00 | 0.00 | 37 | 1016.9 |
| 20260503192530 | 17 | 70 | 3.2 | 11.3 | 0.00 | 0.00 | 0.00 | 36 | 1016.9 |
| 20260503192032 | 16 | 98 | 3.2 | 12.9 | 0.00 | 0.00 | 0.00 | 42 | 1016.9 |
| 20260503191610 | 16 | 240 | 4.8 | 12.9 | 0.00 | 0.00 | 0.00 | 41 | 1016.9 |
| 20260503191031 | 16 | 292 | 3.2 | 17.7 | 0.00 | 0.00 | 0.00 | 40 | 1017.0 |
| 20260503190533 | 16 | 342 | 4.8 | 17.7 | 0.00 | 0.00 | 0.00 | 40 | 1017.0 |
| 20260503190127 | 16 | 250 | 1.6 | 9.7 | 0.00 | 0.00 | 0.00 | 39 | 1017.1 |
| 20260503185539 | 16 | 244 | 3.2 | 9.7 | 0.00 | 0.00 | 0.00 | 42 | 1017.2 |
| 20260503185035 | 15 | 136 | 1.6 | 14.5 | 0.00 | 0.00 | 0.00 | 41 | 1017.3 |
| 20260503184612 | 15 | 127 | 4.8 | 14.5 | 0.00 | 0.00 | 0.00 | 40 | 1017.2 |
| 20260503184049 | 15 | 79 | 3.2 | 9.7 | 0.00 | 0.00 | 0.00 | 41 | 1017.3 |
| 20260503183536 | 15 | 18 | 4.8 | 9.7 | 0.00 | 0.00 | 0.00 | 39 | 1017.4 |
| 20260503183112 | 16 | 168 | 1.6 | 9.7 | 0.00 | 0.00 | 0.00 | 40 | 1017.5 |
| 20260503182539 | 15 | 289 | 1.6 | 14.5 | 0.00 | 0.00 | 0.00 | 44 | 1017.4 |
| 20260503182018 | 15 | 134 | 6.4 | 14.5 | 0.00 | 0.00 | 0.00 | 42 | 1017.5 |
| 20260503181614 | 15 | 266 | 3.2 | 11.3 | 0.00 | 0.00 | 0.00 | 42 | 1017.6 |
| 20260503181045 | 15 | 214 | 3.2 | 12.9 | 0.00 | 0.00 | 0.00 | 42 | 1017.7 |
| 20260503180524 | 15 | 245 | 3.2 | 12.9 | 0.00 | 0.00 | 0.00 | 42 | 1017.8 |
| 20260503180110 | 15 | 244 | 3.2 | 16.1 | 0.00 | 0.00 | 0.00 | 44 | 1017.7 |
| 20260503175529 | 15 | 179 | 3.2 | 16.1 | 0.00 | 0.00 | 0.00 | 44 | 1017.9 |
| 20260503175020 | 15 | 261 | 4.8 | 14.5 | 0.00 | 0.00 | 0.00 | 43 | 1017.9 |
| 20260503174634 | 15 | 253 | 6.4 | 14.5 | 0.00 | 0.00 | 0.00 | 44 | 1018.0 |
| 20260503174020 | 15 | 51 | 3.2 | 12.9 | 0.00 | 0.00 | 0.00 | 43 | 1018.1 |
| 20260503173539 | 15 | 247 | 3.2 | 11.3 | 0.00 | 0.00 | 0.00 | 43 | 1018.1 |
| 20260503173108 | 15 | 240 | 4.8 | 11.3 | 0.00 | 0.00 | 0.00 | 44 | 1018.2 |
| 20260503172525 | 15 | 255 | 3.2 | 9.7 | 0.00 | 0.00 | 0.00 | 44 | 1018.3 |
| 20260503172033 | 15 | 276 | 3.2 | 9.7 | 0.00 | 0.00 | 0.00 | 45 | 1018.3 |
| 20260503171633 | 14 | 275 | 1.6 | 14.5 | 0.00 | 0.00 | 0.00 | 44 | 1018.3 |
| 20260503171047 | 14 | 106 | 3.2 | 14.5 | 0.00 | 0.00 | 0.00 | 50 | 1018.3 |
| 20260503170519 | 15 | 284 | 3.2 | 8.0 | 0.00 | 0.00 | 0.00 | 46 | 1018.3 |